Location: Newark
(37.7892°N, 97.1083°W)
Time: 22:35:04
(UTC+00:00)

ISS - Pass Details

Date: 03 February 2021
Orbit: 417 x 422 km, 51.6° (Epoch: 26 February)

Event Time Altitude Azimuth Distance (km) Brightness Sun altitude
Rises 00:50:38 0° 318° (NW) 2,376 0.5 -11.6°
Reaches altitude 10° 00:53:05 10° 335° (NNW) 1,510 -0.8 -12.1°
Maximum altitude 00:55:46 22° 27° (NNE) 993 -2.2 -12.6°
Enters shadow 00:56:39 19° 50° (NE) 1,061 -2.2 -12.8°
